Flag for United Kingdom Weather past 2 weeks in Birmingham, England, United Kingdom

46 °F

Partly cloudy.

Feels Like: 41 °F
Forecast: 45 / 51 °F
Wind: 12 mph from Northwest

Location: Birmingham / Airport

Current Time: Nov 26, 2015 at 3:22:31 AM

Latest Report: Nov 26, 2015 at 2:50 AM

Visibility: 4 mi

Pressure: 30.04 "Hg

Humidity: 93%

Dew point: 45 °F

Location of BirminghamLocation

Historic Weather in Birmingham — Graph


Birmingham temperature yesterday

Maximum temperature yesterday: 50 °F (at 12:20 PM)
Minimum temperature yesterday: 46 °F (at 12:20 AM)
Average temperature yesterday: 48 °F

Past Weeks' High & Low Weather Summary

High59 °F (Nov 14, 9:50 PM)100% (Nov 12, 3:50 AM)30.24 "Hg (Nov 12, 3:50 AM)
Low28 °F (Nov 23, 7:20 AM)52% (Nov 21, 1:20 PM)29.39 "Hg (Nov 17, 1:50 PM)
Average47 °F82%29.88 "Hg
* Reported Nov 11 2:20 AM — Nov 26 2:20 AM, Birmingham, Weather by CustomWeather, © 2015

Note: Actual official high and low records may vary slightly from our data, if they occured in-between our weather recording intervals... More about our weather records


Birmingham weather history for previous 24 hours

Time TempWeatherWind HumidityBarometerVisibility
2:20 AM
Thu, Nov 26
48 °FPartly cloudy.9 mph87%30.04 "Hg5 mi
1:50 AM48 °FMostly cloudy.13 mph94%30.04 "Hg5 mi
1:20 AM48 °FMostly cloudy.12 mph94%30.04 "Hg4 mi
12:20 AM48 °FPassing clouds.12 mph94%30.04 "Hg2 mi
11:50 PM
Wed, Nov 25
48 °FPartly cloudy.8 mph94%30.01 "Hg3 mi
11:20 PM48 °FPassing clouds.10 mph94%30.01 "HgN/A
10:50 PM48 °FOvercast.7 mph94%30.01 "HgN/A
10:20 PM48 °FLight rain. Partly cloudy.10 mph94%30.01 "Hg6 mi
9:50 PM48 °FPartly cloudy.9 mph94%30.01 "HgN/A
9:20 PM48 °FPassing clouds.9 mph94%30.01 "HgN/A
8:50 PM48 °FLight rain. Mostly cloudy.13 mph94%30.01 "Hg4 mi
8:20 PM48 °FLight rain. Passing clouds.15 mph87%30.01 "Hg4 mi
7:50 PM48 °FPartly cloudy.13 mph87%30.01 "Hg5 mi
7:20 PM48 °FPassing clouds.13 mph87%29.98 "HgN/A
6:50 PM48 °FPassing clouds.15 mph87%29.98 "HgN/A
6:20 PM48 °FPassing clouds.15 mph87%29.95 "HgN/A
5:50 PM48 °FPassing clouds.10 mph87%29.95 "HgN/A
5:20 PM48 °FLight rain. Partly cloudy.12 mph94%29.95 "HgN/A
4:50 PM50 °FPassing clouds.14 mph82%29.95 "HgN/A
4:20 PM50 °FPartly cloudy.13 mph82%29.92 "HgN/A
3:50 PM50 °FBroken clouds.13 mph82%29.92 "HgN/A
3:20 PM50 °FPassing clouds.14 mph82%29.89 "HgN/A
2:50 PM50 °FScattered clouds.16 mph82%29.89 "HgN/A
2:20 PM50 °FPartly sunny.16 mph82%29.89 "HgN/A
1:50 PM50 °FPartly sunny.16 mph82%29.89 "HgN/A
1:20 PM50 °FPassing clouds.16 mph82%29.89 "HgN/A
12:50 PM50 °FPassing clouds.16 mph82%29.86 "HgN/A
12:20 PM50 °FScattered clouds.16 mph82%29.86 "HgN/A
11:50 AM48 °FLight rain. Scattered clouds.15 mph87%29.89 "HgN/A
11:20 AM48 °FScattered clouds.17 mph87%29.89 "HgN/A
10:50 AM48 °FScattered clouds.16 mph87%29.89 "HgN/A
10:20 AM48 °FPassing clouds.15 mph87%29.86 "HgN/A
9:50 AM48 °FPassing clouds.15 mph82%29.86 "HgN/A
9:20 AM48 °FSunny.17 mph82%29.86 "Hg10 mi
8:50 AM48 °FScattered clouds.13 mph87%29.83 "HgN/A
8:20 AM46 °FScattered showers. Broken clouds.12 mph93%29.83 "HgN/A
7:50 AM46 °FLight rain. Broken clouds.10 mph87%29.83 "Hg4 mi
7:20 AM46 °FPartly cloudy.10 mph87%29.83 "HgN/A
6:50 AM46 °FPartly cloudy.12 mph87%29.83 "HgN/A
6:20 AM46 °FPartly cloudy.10 mph82%29.83 "HgN/A
5:50 AM46 °FPassing clouds.9 mph82%29.80 "HgN/A
5:20 AM46 °FMostly cloudy.13 mph82%29.80 "HgN/A
4:50 AM46 °FPassing clouds.10 mph82%29.80 "HgN/A
4:20 AM46 °FPassing clouds.8 mph82%29.80 "HgN/A
3:20 AM46 °FPartly cloudy.9 mph82%29.80 "HgN/A
Weather by CustomWeather, © 2015

See weather overviewHow to use our weather pages